Precipitable_Water
0.36 0.26 0.20 0.26 0.34 0.39 0.46 0.49 0.56 0.59 0.70 0.79 0.85 0.82 0.80 0.84 0.94 1.09 1.15 1.30 1.40 1.20 1.13 1.21 1.28 1.25 1.25 1.27 1.27 1.28 1.22 1.12 1.06 1.02 0.99 0.99 1.00 1.03 1.03 1.00 0.97 0.99 1.01 1.09 1.16 1.17 1.34 1.47 1.52 1.56 1.61 1.63 1.62 1.65 1.74 1.73 1.69 1.64 1.58 1.50 1.40 1.46 1.54 1.53 1.49 1.47 1.43 1.39 1.39 1.40 1.37 1.36 1.40 1.40 1.45 1.47 1.52 1.60 1.66 1.71 1.77 1.80 1.81 1.79 1.70 1.70
0.35 0.24 0.21 0.25 0.37 0.43 0.52 0.58 0.61 0.56 0.72 0.79 0.80 0.79 0.77 0.84 0.84 1.06 1.07 1.25 1.37 1.15 1.09 1.15 1.19 1.23 1.31 1.39 1.37 1.35 1.23 1.10 1.07 1.04 1.04 1.03 1.03 1.04 1.03 1.00 0.95 1.00 1.08 1.11 1.14 1.20 1.36 1.44 1.49 1.55 1.60 1.61 1.56 1.62 1.68 1.69 1.68 1.64 1.61 1.52 1.45 1.46 1.48 1.49 1.49 1.47 1.44 1.43 1.41 1.36 1.33 1.36 1.38 1.37 1.36 1.36 1.42 1.48 1.57 1.66 1.75 1.80 1.81 1.78 1.70 1.73
0.26 0.20 0.21 0.24 0.36 0.48 0.56 0.57 0.56 0.54 0.75 0.79 0.77 0.77 0.76 0.83 0.99 1.09 1.13 1.23 1.35 1.20 1.09 1.17 1.08 1.14 1.23 1.34 1.39 1.38 1.29 1.27 1.24 1.15 1.11 1.08 1.06 1.05 1.06 1.04 0.98 0.98 1.01 1.09 1.12 1.20 1.31 1.38 1.45 1.50 1.56 1.57 1.60 1.59 1.61 1.69 1.69 1.64 1.60 1.56 1.50 1.47 1.44 1.46 1.49 1.47 1.43 1.45 1.47 1.45 1.39 1.38 1.37 1.47 1.45 1.43 1.46 1.50 1.50 1.58 1.69 1.76 1.77 1.77 1.75 1.79
0.19 0.19 0.22 0.23 0.29 0.42 0.49 0.50 0.51 0.44 0.66 0.73 0.74 0.72 0.69 0.86 0.82 0.76 1.05 1.17 1.29 1.22 1.13 1.18 1.08 1.10 1.23 1.33 1.35 1.47 1.36 1.32 1.35 1.27 1.22 1.16 1.12 1.08 1.08 1.07 1.01 0.97 0.99 1.07 1.15 1.19 1.28 1.35 1.41 1.47 1.50 1.54 1.61 1.56 1.56 1.65 1.66 1.65 1.61 1.58 1.52 1.49 1.48 1.44 1.45 1.45 1.48 1.49 1.50 1.52 1.46 1.45 1.41 1.36 1.43 1.46 1.50 1.51 1.47 1.46 1.61 1.69 1.71 1.74 1.75 1.76
0.18 0.18 0.22 0.21 0.22 0.31 0.37 0.40 0.44 0.40 0.45 0.64 0.67 0.72 0.74 0.81 0.85 0.84 0.91 1.13 1.23 1.29 1.31 1.21 1.07 1.06 1.13 1.13 1.22 1.39 1.45 1.37 1.35 1.30 1.26 1.24 1.24 1.22 1.15 1.11 1.09 1.02 1.01 1.09 1.19 1.25 1.28 1.33 1.36 1.42 1.49 1.56 1.56 1.51 1.48 1.58 1.63 1.64 1.63 1.60 1.53 1.50 1.48 1.45 1.44 1.45 1.47 1.49 1.48 1.49 1.48 1.47 1.41 1.39 1.36 1.36 1.37 1.44 1.43 1.45 1.55 1.61 1.65 1.64 1.70 1.73
0.19 0.21 0.23 0.21 0.19 0.22 0.26 0.29 0.39 0.39 0.36 0.53 0.68 0.70 0.74 0.84 0.85 0.95 1.03 1.00 0.98 0.99 1.19 1.11 0.84 0.85 1.07 1.11 1.15 1.27 1.32 1.27 1.36 1.28 1.22 1.23 1.24 1.23 1.12 1.08 1.11 1.13 1.12 1.12 1.18 1.24 1.32 1.37 1.41 1.46 1.50 1.52 1.55 1.51 1.48 1.55 1.62 1.68 1.68 1.65 1.57 1.53 1.52 1.48 1.47 1.46 1.44 1.43 1.42 1.38 1.34 1.26 1.22 1.13 1.14 1.15 1.17 1.27 1.27 1.28 1.43 1.51 1.55 1.55 1.58 1.63
0.21 0.22 0.22 0.22 0.20 0.19 0.20 0.26 0.35 0.38 0.35 0.43 0.60 0.81 0.84 0.86 0.90 0.92 0.94 0.94 0.80 0.74 0.99 1.20 0.82 0.75 1.05 1.05 1.14 1.22 1.22 1.21 1.32 1.30 1.26 1.24 1.25 1.25 1.15 1.11 1.11 1.14 1.16 1.18 1.23 1.30 1.35 1.40 1.41 1.44 1.46 1.50 1.53 1.56 1.57 1.55 1.59 1.68 1.72 1.68 1.60 1.54 1.54 1.56 1.54 1.49 1.45 1.43 1.42 1.38 1.35 1.31 1.22 1.10 1.12 1.23 1.27 1.25 1.29 1.33 1.31 1.33 1.39 1.44 1.42 1.43
0.23 0.21 0.22 0.24 0.23 0.22 0.27 0.29 0.34 0.39 0.40 0.41 0.64 0.83 0.89 0.89 0.83 0.86 0.87 0.86 0.84 1.07 1.09 1.16 1.05 0.84 0.83 0.99 1.17 1.24 1.18 1.18 1.21 1.27 1.29 1.27 1.26 1.26 1.19 1.15 1.15 1.16 1.19 1.17 1.19 1.28 1.35 1.39 1.39 1.39 1.46 1.49 1.55 1.62 1.61 1.56 1.59 1.61 1.68 1.69 1.62 1.60 1.60 1.63 1.60 1.51 1.49 1.42 1.41 1.37 1.35 1.34 1.28 1.19 1.13 1.20 1.24 1.28 1.27 1.27 1.29 1.31 1.35 1.37 1.40 1.36
0.23 0.20 0.21 0.21 0.24 0.26 0.29 0.29 0.43 0.46 0.43 0.48 0.70 0.82 0.82 0.81 0.84 0.87 0.87 0.84 0.90 0.88 0.81 0.99 1.11 0.86 0.83 0.99 1.19 1.24 1.10 1.12 1.14 1.21 1.29 1.30 1.29 1.28 1.22 1.18 1.19 1.17 1.20 1.20 1.20 1.24 1.30 1.36 1.41 1.44 1.48 1.54 1.59 1.64 1.59 1.55 1.57 1.61 1.66 1.71 1.67 1.64 1.64 1.65 1.64 1.54 1.52 1.48 1.40 1.35 1.33 1.30 1.32 1.29 1.25 1.26 1.28 1.25 1.25 1.23 1.28 1.30 1.35 1.39 1.45 1.50
0.23 0.22 0.23 0.23 0.22 0.21 0.27 0.42 0.48 0.51 0.47 0.66 0.77 0.83 0.90 0.94 0.90 0.89 0.84 0.83 0.88 0.79 0.71 0.88 1.03 0.78 0.79 1.02 1.06 1.18 1.12 1.06 1.10 1.20 1.28 1.33 1.32 1.31 1.27 1.23 1.22 1.20 1.21 1.24 1.25 1.28 1.33 1.40 1.45 1.51 1.57 1.60 1.61 1.65 1.62 1.60 1.61 1.60 1.63 1.64 1.66 1.64 1.64 1.65 1.64 1.59 1.53 1.50 1.42 1.32 1.32 1.29 1.29 1.30 1.28 1.26 1.20 1.19 1.25 1.24 1.26 1.30 1.37 1.39 1.44 1.50
0.27 0.27 0.27 0.23 0.22 0.28 0.37 0.41 0.42 0.47 0.53 0.80 0.90 0.87 0.91 0.94 0.95 0.99 0.94 0.87 0.80 0.66 0.74 0.92 1.01 0.90 0.71 0.91 1.02 1.01 0.97 1.05 1.12 1.21 1.30 1.38 1.39 1.38 1.34 1.27 1.21 1.20 1.20 1.24 1.27 1.31 1.37 1.45 1.49 1.58 1.57 1.60 1.67 1.67 1.61 1.58 1.58 1.57 1.58 1.59 1.59 1.65 1.65 1.63 1.61 1.59 1.51 1.50 1.44 1.34 1.32 1.32 1.30 1.31 1.26 1.22 1.19 1.17 1.21 1.24 1.25 1.28 1.35 1.40 1.42 1.48
0.25 0.26 0.24 0.25 0.29 0.39 0.44 0.43 0.48 0.75 0.72 0.83 0.78 0.73 0.74 0.76 0.86 0.83 0.80 0.89 0.64 0.59 0.81 0.94 0.95 0.97 0.68 0.81 1.04 1.15 1.22 1.24 1.20 1.15 1.22 1.32 1.38 1.40 1.39 1.34 1.24 1.23 1.22 1.25 1.28 1.33 1.38 1.45 1.51 1.58 1.58 1.61 1.65 1.66 1.60 1.58 1.57 1.53 1.55 1.58 1.54 1.64 1.63 1.61 1.60 1.59 1.54 1.51 1.46 1.40 1.35 1.33 1.34 1.33 1.29 1.24 1.21 1.19 1.16 1.21 1.24 1.30 1.37 1.39 1.45 1.47
0.23 0.24 0.27 0.27 0.37 0.41 0.41 0.42 0.51 0.70 0.81 0.78 0.79 0.71 0.51 0.57 0.59 0.58 0.70 0.58 0.58 0.59 0.85 0.97 0.98 0.86 0.78 0.89 1.07 1.15 1.20 1.26 1.29 1.26 1.26 1.32 1.38 1.42 1.45 1.42 1.30 1.25 1.25 1.26 1.28 1.32 1.36 1.39 1.45 1.52 1.55 1.61 1.61 1.61 1.60 1.58 1.55 1.52 1.53 1.55 1.54 1.57 1.64 1.59 1.59 1.54 1.54 1.52 1.49 1.46 1.39 1.39 1.40 1.36 1.36 1.33 1.28 1.30 1.25 1.25 1.26 1.28 1.31 1.37 1.40 1.43
0.22 0.27 0.28 0.29 0.33 0.42 0.48 0.38 0.46 0.48 0.63 0.59 0.54 0.56 0.49 0.45 0.44 0.43 0.54 0.64 0.65 0.77 0.94 0.90 1.01 0.76 0.89 0.97 1.12 1.12 1.23 1.31 1.34 1.35 1.33 1.34 1.38 1.43 1.47 1.48 1.38 1.28 1.26 1.27 1.30 1.32 1.34 1.36 1.42 1.49 1.53 1.60 1.61 1.62 1.60 1.62 1.55 1.51 1.51 1.53 1.53 1.53 1.64 1.62 1.57 1.52 1.50 1.53 1.54 1.56 1.49 1.45 1.46 1.42 1.40 1.41 1.36 1.38 1.37 1.35 1.32 1.30 1.30 1.30 1.34 1.38
0.21 0.23 0.27 0.27 0.27 0.46 0.46 0.46 0.48 0.49 0.50 0.48 0.59 0.52 0.49 0.46 0.40 0.39 0.50 0.48 0.55 0.62 0.79 0.99 0.78 0.69 0.73 0.84 1.22 1.27 1.34 1.38 1.42 1.44 1.43 1.41 1.42 1.47 1.54 1.53 1.45 1.35 1.28 1.30 1.34 1.36 1.34 1.37 1.41 1.45 1.52 1.59 1.61 1.61 1.62 1.66 1.61 1.55 1.50 1.48 1.49 1.51 1.58 1.63 1.58 1.54 1.48 1.47 1.54 1.60 1.58 1.53 1.55 1.51 1.46 1.44 1.45 1.44 1.43 1.42 1.39 1.37 1.38 1.34 1.35 1.38
0.24 0.23 0.28 0.31 0.37 0.43 0.41 0.46 0.51 0.50 0.47 0.48 0.45 0.59 0.53 0.45 0.52 0.44 0.60 0.59 0.59 0.63 0.65 0.77 0.71 0.86 0.84 1.21 1.29 1.33 1.38 1.38 1.44 1.45 1.49 1.44 1.45 1.45 1.50 1.52 1.47 1.42 1.36 1.33 1.35 1.39 1.40 1.41 1.42 1.46 1.51 1.56 1.60 1.62 1.63 1.66 1.69 1.62 1.52 1.47 1.48 1.48 1.52 1.61 1.60 1.59 1.56 1.48 1.54 1.62 1.61 1.60 1.60 1.59 1.52 1.48 1.50 1.50 1.50 1.48 1.44 1.41 1.42 1.43 1.46 1.48
0.28 0.26 0.30 0.35 0.40 0.40 0.39 0.41 0.47 0.53 0.38 0.42 0.40 0.37 0.42 0.54 0.49 0.50 0.59 0.69 0.68 0.60 0.54 0.77 0.73 0.87 1.09 1.12 1.22 1.25 1.26 1.31 1.39 1.42 1.43 1.45 1.44 1.42 1.44 1.50 1.53 1.48 1.43 1.39 1.37 1.38 1.41 1.44 1.47 1.49 1.51 1.55 1.60 1.60 1.59 1.66 1.70 1.67 1.59 1.47 1.43 1.47 1.52 1.57 1.60 1.65 1.64 1.54 1.55 1.60 1.62 1.63 1.62 1.58 1.52 1.50 1.48 1.48 1.51 1.53 1.50 1.46 1.47 1.49 1.50 1.53
0.32 0.32 0.36 0.36 0.36 0.42 0.44 0.42 0.49 0.52 0.51 0.43 0.34 0.37 0.43 0.61 0.56 0.43 0.38 0.53 0.50 0.43 0.53 0.70 0.64 0.70 0.75 0.67 1.14 1.16 1.15 1.22 1.29 1.34 1.39 1.42 1.44 1.36 1.40 1.49 1.55 1.53 1.50 1.46 1.41 1.42 1.44 1.45 1.47 1.50 1.53 1.54 1.57 1.57 1.59 1.66 1.74 1.74 1.67 1.51 1.41 1.39 1.41 1.51 1.60 1.66 1.68 1.61 1.57 1.60 1.60 1.60 1.62 1.59 1.55 1.55 1.51 1.50 1.46 1.48 1.53 1.53 1.50 1.48 1.52 1.55
0.39 0.31 0.35 0.38 0.38 0.43 0.45 0.40 0.42 0.50 0.52 0.45 0.38 0.44 0.34 0.34 0.33 0.46 0.41 0.37 0.38 0.38 0.46 0.60 0.68 0.69 0.75 0.76 0.98 1.01 1.05 1.11 1.19 1.28 1.32 1.34 1.38 1.36 1.38 1.46 1.59 1.61 1.56 1.55 1.50 1.44 1.44 1.48 1.47 1.47 1.49 1.53 1.57 1.60 1.60 1.67 1.76 1.76 1.71 1.60 1.48 1.36 1.38 1.47 1.59 1.66 1.71 1.72 1.69 1.65 1.61 1.59 1.60 1.62 1.61 1.60 1.59 1.55 1.47 1.42 1.48 1.51 1.53 1.56 1.56 1.56
0.42 0.34 0.34 0.40 0.39 0.44 0.43 0.40 0.35 0.39 0.44 0.45 0.43 0.39 0.40 0.36 0.41 0.38 0.36 0.43 0.41 0.39 0.39 0.47 0.60 0.55 0.78 0.82 0.94 0.97 1.08 1.10 1.13 1.17 1.21 1.30 1.37 1.39 1.40 1.45 1.55 1.58 1.58 1.60 1.59 1.53 1.46 1.46 1.46 1.46 1.46 1.51 1.54 1.58 1.61 1.66 1.74 1.74 1.69 1.59 1.54 1.48 1.41 1.42 1.50 1.60 1.65 1.70 1.72 1.70 1.67 1.67 1.62 1.60 1.60 1.63 1.62 1.60 1.54 1.50 1.53 1.59 1.60 1.65 1.68 1.66
0.40 0.43 0.33 0.40 0.43 0.41 0.34 0.35 0.35 0.38 0.37 0.38 0.37 0.35 0.33 0.34 0.48 0.45 0.49 0.42 0.38 0.36 0.37 0.40 0.42 0.55 0.76 0.98 0.98 1.01 1.12 1.18 1.19 1.17 1.23 1.33 1.40 1.44 1.45 1.49 1.55 1.58 1.60 1.61 1.63 1.63 1.56 1.49 1.46 1.45 1.47 1.53 1.60 1.62 1.63 1.63 1.67 1.73 1.74 1.62 1.56 1.47 1.42 1.36 1.40 1.50 1.59 1.67 1.68 1.69 1.66 1.68 1.65 1.58 1.58 1.63 1.66 1.64 1.64 1.64 1.64 1.69 1.69 1.72 1.71 1.72
0.41 0.41 0.37 0.38 0.35 0.35 0.37 0.37 0.36 0.40 0.43 0.40 0.37 0.35 0.34 0.33 0.36 0.33 0.36 0.52 0.50 0.41 0.38 0.37 0.39 0.58 0.83 1.05 1.04 1.04 1.14 1.18 1.25 1.23 1.25 1.36 1.43 1.47 1.51 1.54 1.62 1.59 1.59 1.62 1.67 1.63 1.66 1.73 1.55 1.49 1.51 1.53 1.59 1.58 1.57 1.60 1.66 1.71 1.70 1.69 1.61 1.52 1.46 1.41 1.39 1.42 1.51 1.60 1.65 1.67 1.66 1.69 1.72 1.67 1.62 1.67 1.68 1.64 1.67 1.69 1.70 1.72 1.74 1.69 1.74 1.73
0.45 0.42 0.42 0.35 0.35 0.34 0.37 0.37 0.39 0.42 0.45 0.41 0.35 0.34 0.36 0.35 0.40 0.41 0.34 0.43 0.49 0.49 0.52 0.50 0.42 0.52 0.91 1.05 1.07 1.10 1.16 1.19 1.25 1.26 1.27 1.38 1.46 1.51 1.55 1.60 1.64 1.67 1.64 1.65 1.69 1.71 1.68 1.70 1.76 1.70 1.57 1.56 1.55 1.56 1.58 1.59 1.61 1.64 1.69 1.72 1.66 1.52 1.45 1.45 1.43 1.44 1.49 1.54 1.59 1.62 1.66 1.67 1.68 1.69 1.67 1.67 1.69 1.68 1.72 1.75 1.76 1.75 1.71 1.71 1.74 1.77
0.47 0.40 0.38 0.37 0.39 0.40 0.44 0.43 0.39 0.42 0.43 0.37 0.35 0.34 0.31 0.32 0.37 0.35 0.37 0.48 0.43 0.48 0.41 0.43 0.37 0.52 0.90 1.09 1.09 1.12 1.19 1.24 1.30 1.31 1.30 1.37 1.47 1.52 1.53 1.55 1.61 1.65 1.69 1.71 1.72 1.74 1.71 1.70 1.78 1.82 1.73 1.63 1.67 1.62 1.56 1.57 1.60 1.63 1.68 1.72 1.69 1.56 1.47 1.45 1.45 1.46 1.48 1.53 1.54 1.59 1.63 1.62 1.66 1.67 1.69 1.68 1.69 1.70 1.74 1.78 1.79 1.78 1.72 1.75 1.76 1.76
0.37 0.41 0.40 0.35 0.33 0.34 0.36 0.35 0.35 0.39 0.39 0.36 0.34 0.32 0.30 0.29 0.31 0.32 0.35 0.48 0.37 0.41 0.38 0.35 0.31 0.43 0.77 1.02 1.08 1.11 1.14 1.16 1.22 1.31 1.33 1.35 1.43 1.48 1.48 1.54 1.61 1.62 1.66 1.68 1.69 1.68 1.70 1.70 1.74 1.81 1.85 1.73 1.71 1.73 1.67 1.60 1.59 1.61 1.65 1.73 1.72 1.65 1.56 1.48 1.48 1.47 1.49 1.53 1.52 1.56 1.59 1.59 1.62 1.64 1.67 1.69 1.71 1.70 1.72 1.75 1.79 1.78 1.72 1.75 1.80 1.84
0.39 0.40 0.40 0.33 0.29 0.26 0.26 0.26 0.28 0.31 0.34 0.37 0.38 0.36 0.34 0.30 0.30 0.27 0.22 0.35 0.26 0.39 0.40 0.33 0.34 0.54 0.78 0.94 0.98 1.05 1.10 1.13 1.24 1.31 1.36 1.34 1.37 1.41 1.46 1.50 1.56 1.62 1.65 1.67 1.66 1.63 1.61 1.69 1.76 1.82 1.90 1.84 1.78 1.77 1.76 1.73 1.70 1.66 1.67 1.72 1.77 1.72 1.64 1.57 1.53 1.50 1.49 1.52 1.52 1.54 1.54 1.57 1.60 1.61 1.62 1.67 1.69 1.71 1.71 1.73 1.76 1.80 1.89 1.96 1.95 1.95
0.38 0.43 0.43 0.40 0.37 0.34 0.36 0.38 0.41 0.43 0.38 0.33 0.38 0.46 0.44 0.38 0.36 0.29 0.26 0.24 0.23 0.36 0.36 0.39 0.40 0.49 0.61 0.75 0.83 0.98 1.04 1.06 1.14 1.26 1.29 1.34 1.40 1.40 1.41 1.44 1.50 1.53 1.61 1.65 1.65 1.66 1.70 1.71 1.73 1.85 1.87 1.87 1.90 1.89 1.82 1.78 1.77 1.70 1.67 1.72 1.81 1.83 1.75 1.66 1.58 1.54 1.50 1.51 1.51 1.52 1.53 1.55 1.58 1.60 1.59 1.60 1.63 1.68 1.73 1.75 1.78 1.87 1.77 1.88 1.89 1.92
0.39 0.40 0.42 0.43 0.43 0.42 0.42 0.40 0.40 0.41 0.39 0.46 0.46 0.45 0.46 0.37 0.32 0.26 0.21 0.20 0.31 0.33 0.28 0.41 0.50 0.44 0.53 0.67 0.78 0.89 1.00 1.07 1.17 1.22 1.28 1.34 1.40 1.47 1.50 1.50 1.52 1.52 1.58 1.64 1.68 1.68 1.64 1.67 1.73 1.84 1.87 1.82 1.81 1.92 1.90 1.81 1.79 1.76 1.75 1.73 1.80 1.87 1.87 1.84 1.74 1.63 1.56 1.54 1.52 1.51 1.51 1.54 1.56 1.57 1.57 1.59 1.59 1.60 1.66 1.71 1.80 1.87 1.88 1.93 1.87 1.88
0.37 0.37 0.45 0.43 0.42 0.42 0.44 0.43 0.44 0.54 0.59 0.59 0.56 0.53 0.45 0.42 0.35 0.29 0.27 0.24 0.29 0.25 0.22 0.35 0.47 0.43 0.55 0.66 0.78 0.89 1.01 1.05 1.14 1.21 1.29 1.37 1.44 1.49 1.51 1.54 1.54 1.52 1.54 1.58 1.63 1.69 1.71 1.70 1.72 1.77 1.85 1.85 1.85 1.80 1.87 1.89 1.83 1.80 1.82 1.85 1.87 1.88 1.87 1.91 1.85 1.77 1.69 1.64 1.57 1.52 1.53 1.55 1.56 1.57 1.58 1.59 1.57 1.55 1.55 1.58 1.67 1.74 1.81 1.86 1.91 1.93
0.39 0.39 0.45 0.44 0.42 0.43 0.46 0.48 0.56 0.52 0.58 0.57 0.57 0.57 0.58 0.53 0.48 0.43 0.38 0.37 0.35 0.32 0.36 0.43 0.53 0.53 0.62 0.71 0.84 0.94 1.09 1.15 1.20 1.31 1.34 1.33 1.37 1.43 1.48 1.51 1.55 1.57 1.57 1.56 1.61 1.67 1.74 1.75 1.73 1.76 1.81 1.83 1.85 1.84 1.83 1.97 1.90 1.77 1.75 1.82 1.84 1.85 1.88 1.90 1.84 1.79 1.77 1.72 1.65 1.60 1.56 1.55 1.54 1.53 1.53 1.52 1.54 1.55 1.55 1.56 1.57 1.57 1.61 1.68 1.79 1.86
0.39 0.36 0.43 0.44 0.40 0.42 0.47 0.52 0.60 0.54 0.53 0.55 0.59 0.59 0.61 0.66 0.58 0.52 0.51 0.47 0.44 0.40 0.47 0.55 0.54 0.53 0.73 0.88 0.91 1.04 1.11 1.18 1.20 1.19 1.21 1.28 1.34 1.36 1.38 1.43 1.49 1.54 1.58 1.62 1.65 1.69 1.73 1.74 1.76 1.77 1.75 1.76 1.81 1.83 1.88 1.99 1.95 1.81 1.78 1.82 1.84 1.86 1.91 1.91 1.81 1.76 1.78 1.81 1.85 1.76 1.64 1.57 1.55 1.56 1.52 1.51 1.53 1.55 1.54 1.54 1.57 1.58 1.58 1.60 1.63 1.67
0.40 0.37 0.43 0.43 0.38 0.39 0.46 0.48 0.55 0.58 0.55 0.54 0.56 0.58 0.60 0.62 0.56 0.58 0.51 0.57 0.50 0.42 0.50 0.54 0.48 0.51 0.74 0.88 0.94 1.01 1.06 1.08 1.09 1.14 1.19 1.26 1.36 1.37 1.37 1.41 1.46 1.51 1.56 1.60 1.66 1.71 1.74 1.74 1.74 1.72 1.75 1.79 1.80 1.78 1.79 1.91 1.95 1.84 1.76 1.79 1.77 1.81 1.86 1.87 1.87 1.86 1.87 1.86 1.96 1.92 1.80 1.69 1.63 1.58 1.55 1.56 1.56 1.56 1.55 1.54 1.52 1.51 1.51 1.52 1.54 1.56
0.37 0.37 0.36 0.39 0.36 0.38 0.46 0.50 0.50 0.53 0.47 0.44 0.50 0.59 0.68 0.69 0.76 0.73 0.68 0.69 0.67 0.71 0.51 0.43 0.48 0.72 0.79 0.87 0.81 0.90 0.99 1.06 1.11 1.15 1.17 1.26 1.34 1.38 1.39 1.41 1.47 1.53 1.56 1.61 1.64 1.69 1.75 1.79 1.80 1.80 1.78 1.76 1.75 1.78 1.78 1.82 1.91 1.87 1.83 1.80 1.82 1.81 1.78 1.76 1.86 1.93 1.96 1.87 1.95 1.94 1.87 1.88 1.81 1.71 1.65 1.62 1.61 1.61 1.59 1.57 1.55 1.54 1.51 1.48 1.50 1.50
0.38 0.35 0.35 0.42 0.34 0.36 0.43 0.48 0.51 0.44 0.37 0.46 0.68 0.75 0.79 0.68 0.67 0.68 0.66 0.77 0.83 0.84 0.75 0.80 0.78 0.87 0.86 0.83 0.80 0.82 0.91 1.01 1.12 1.22 1.30 1.30 1.29 1.34 1.38 1.43 1.46 1.52 1.56 1.63 1.64 1.68 1.77 1.80 1.83 1.87 1.89 1.85 1.80 1.87 1.94 1.93 1.93 1.95 1.94 1.89 1.86 1.81 1.79 1.77 1.77 1.89 1.88 1.89 1.93 1.93 1.87 1.83 1.91 1.90 1.83 1.78 1.74 1.70 1.66 1.61 1.59 1.60 1.61 1.60 1.59 1.54
0.32 0.34 0.33 0.36 0.31 0.33 0.39 0.44 0.40 0.36 0.43 0.67 0.76 0.77 0.81 0.82 0.79 0.68 0.73 0.79 0.85 0.93 0.92 0.90 0.94 0.95 1.01 1.02 0.98 1.00 1.06 1.16 1.24 1.25 1.28 1.36 1.38 1.36 1.36 1.40 1.46 1.49 1.51 1.57 1.61 1.67 1.73 1.72 1.78 1.79 1.81 1.85 1.87 1.95 2.00 2.01 2.02 2.01 1.96 1.92 1.86 1.88 1.89 1.88 1.82 1.77 1.80 1.83 1.89 1.93 1.91 1.87 1.89 2.01 1.97 1.90 1.84 1.81 1.78 1.75 1.75 1.74 1.73 1.70 1.65 1.62
0.34 0.32 0.31 0.32 0.35 0.35 0.34 0.38 0.31 0.43 0.61 0.72 0.74 0.75 0.77 0.81 0.82 0.78 0.66 0.74 0.82 0.88 0.95 0.86 0.91 0.97 1.09 1.08 1.10 1.14 1.15 1.21 1.25 1.28 1.30 1.36 1.43 1.41 1.39 1.39 1.45 1.48 1.47 1.54 1.55 1.67 1.78 1.81 1.74 1.74 1.77 1.87 1.92 1.97 2.00 1.98 2.03 1.98 1.92 1.96 1.93 1.94 1.91 1.86 1.77 1.72 1.75 1.79 1.85 1.89 1.90 1.84 1.82 1.89 1.99 1.95 1.85 1.82 1.82 1.83 1.83 1.81 1.83 1.80 1.79 1.79
0.39 0.35 0.30 0.28 0.34 0.29 0.38 0.39 0.40 0.59 0.61 0.64 0.63 0.67 0.71 0.66 0.66 0.69 0.62 0.71 0.84 0.89 0.90 0.90 0.93 0.97 1.06 1.16 1.20 1.17 1.19 1.19 1.12 1.16 1.29 1.32 1.36 1.43 1.43 1.44 1.48 1.49 1.51 1.53 1.56 1.58 1.70 1.78 1.78 1.90 1.92 1.87 1.88 1.96 1.99 2.04 2.02 2.01 2.00 1.93 1.92 1.87 1.83 1.81 1.77 1.74 1.75 1.79 1.85 1.90 1.90 1.87 1.84 1.93 2.02 1.96 1.85 1.80 1.81 1.82 1.84 1.86 1.91 1.86 1.85 1.84
0.41 0.32 0.36 0.28 0.34 0.35 0.36 0.38 0.42 0.43 0.40 0.51 0.65 0.75 0.82 0.82 0.78 0.78 0.74 0.72 0.91 0.96 1.00 0.99 0.96 0.97 0.95 1.06 1.14 1.19 1.18 0.99 0.89 0.98 1.17 1.25 1.29 1.30 1.36 1.39 1.44 1.48 1.51 1.54 1.59 1.60 1.63 1.66 1.78 1.82 1.90 1.89 1.90 1.89 1.89 1.94 1.97 1.91 1.89 1.90 1.88 1.82 1.77 1.77 1.78 1.82 1.84 1.88 1.94 1.95 1.96 1.97 1.96 1.98 2.04 2.06 1.97 1.88 1.84 1.83 1.83 1.82 1.88 1.85 1.85 1.84
0.43 0.38 0.37 0.31 0.34 0.33 0.33 0.32 0.34 0.32 0.40 0.59 0.65 0.73 0.80 0.85 0.82 0.83 0.67 0.59 0.91 1.00 1.04 1.02 0.98 1.02 1.07 1.07 1.10 1.13 0.92 0.70 0.71 0.91 1.14 1.22 1.25 1.28 1.25 1.29 1.34 1.40 1.44 1.49 1.52 1.57 1.60 1.63 1.67 1.74 1.79 1.83 1.83 1.88 1.96 1.94 1.89 1.84 1.80 1.84 1.86 1.86 1.82 1.82 1.85 1.87 1.86 1.89 1.94 1.96 1.98 2.00 2.04 2.06 2.04 2.03 2.03 2.03 1.97 1.94 1.94 1.94 1.92 1.91 1.92 1.93
0.39 0.37 0.35 0.30 0.28 0.30 0.32 0.31 0.31 0.40 0.41 0.56 0.66 0.74 0.81 0.87 0.82 0.72 0.46 0.52 0.88 1.05 1.06 1.06 0.97 0.97 1.05 1.13 1.17 1.15 0.99 0.77 0.78 0.96 1.16 1.20 1.22 1.22 1.20 1.21 1.27 1.32 1.38 1.44 1.51 1.57 1.63 1.67 1.65 1.63 1.66 1.69 1.77 1.87 1.93 1.92 1.87 1.82 1.81 1.81 1.85 1.84 1.85 1.88 1.90 1.95 1.96 1.97 1.98 2.01 2.03 2.05 2.05 2.09 2.10 2.09 2.11 2.11 2.10 2.09 2.06 2.07 2.04 1.99 1.98 1.97
0.36 0.38 0.38 0.33 0.31 0.33 0.31 0.35 0.41 0.45 0.59 0.67 0.68 0.75 0.78 0.82 0.71 0.49 0.40 0.66 0.95 1.03 1.08 1.10 1.09 1.12 1.08 1.04 1.09 1.04 1.17 1.24 1.22 1.23 1.23 1.23 1.17 1.14 1.18 1.25 1.30 1.36 1.37 1.40 1.44 1.52 1.53 1.58 1.60 1.60 1.63 1.69 1.75 1.79 1.83 1.83 1.79 1.73 1.73 1.73 1.74 1.77 1.82 1.88 1.92 1.90 1.92 1.94 2.00 2.04 2.00 2.03 2.07 2.04 2.04 2.07 2.08 2.10 2.12 2.11 2.04 2.03 2.00 1.98 2.01 2.01
0.38 0.40 0.41 0.42 0.34 0.32 0.37 0.34 0.39 0.50 0.69 0.76 0.75 0.76 0.78 0.60 0.42 0.42 0.78 1.04 1.05 0.99 1.06 1.08 1.10 1.16 1.13 1.14 1.14 1.13 1.19 1.33 1.37 1.33 1.29 1.26 1.17 1.13 1.14 1.17 1.23 1.29 1.35 1.39 1.40 1.40 1.40 1.44 1.48 1.52 1.56 1.63 1.68 1.73 1.76 1.76 1.71 1.70 1.72 1.71 1.69 1.79 1.85 1.89 1.89 1.91 1.89 1.93 1.92 1.93 1.95 1.97 1.99 1.97 2.00 2.03 2.04 2.00 1.97 1.97 1.98 1.98 1.95 1.95 1.97 1.97
0.39 0.36 0.36 0.36 0.42 0.41 0.40 0.36 0.35 0.31 0.63 0.78 0.72 0.68 0.76 0.50 0.59 0.83 0.94 1.01 1.04 1.01 1.00 1.04 1.09 1.15 1.16 1.12 1.22 1.26 1.25 1.30 1.34 1.32 1.32 1.30 1.24 1.17 1.14 1.16 1.19 1.20 1.20 1.23 1.27 1.34 1.36 1.36 1.37 1.40 1.44 1.51 1.56 1.60 1.64 1.64 1.59 1.59 1.61 1.62 1.70 1.78 1.83 1.82 1.91 1.92 1.92 1.92 1.86 1.82 1.80 1.79 1.80 1.84 1.92 1.92 1.90 1.87 1.83 1.87 1.87 1.87 1.89 1.87 1.88 1.86
0.51 0.38 0.39 0.43 0.51 0.38 0.35 0.31 0.36 0.57 0.77 0.85 0.75 0.58 0.84 0.83 0.94 0.98 0.94 0.89 1.03 1.06 1.03 1.03 1.07 1.15 1.19 1.16 1.17 1.21 1.26 1.26 1.33 1.35 1.33 1.29 1.24 1.21 1.18 1.16 1.17 1.19 1.19 1.21 1.23 1.28 1.32 1.32 1.35 1.38 1.44 1.48 1.52 1.55 1.58 1.57 1.54 1.55 1.56 1.60 1.73 1.77 1.79 1.81 1.83 1.80 1.77 1.76 1.75 1.72 1.70 1.67 1.66 1.70 1.71 1.70 1.69 1.69 1.69 1.73 1.78 1.79 1.77 1.81 1.81 1.80
0.51 0.46 0.49 0.42 0.59 0.48 0.44 0.52 0.69 0.80 0.82 0.88 0.90 0.87 0.93 1.01 1.05 1.03 1.01 0.94 0.94 1.01 1.14 1.07 1.08 1.15 1.17 1.17 1.18 1.21 1.19 1.25 1.28 1.32 1.28 1.24 1.21 1.15 1.10 1.09 1.09 1.09 1.09 1.10 1.12 1.17 1.18 1.19 1.24 1.32 1.37 1.43 1.46 1.51 1.53 1.56 1.53 1.53 1.53 1.61 1.68 1.67 1.64 1.60 1.56 1.54 1.53 1.53 1.54 1.52 1.52 1.50 1.48 1.47 1.46 1.45 1.44 1.43 1.45 1.48 1.52 1.55 1.60 1.59 1.61 1.62
0.65 0.62 0.63 0.55 0.58 0.71 0.76 0.78 0.84 0.82 0.84 0.86 0.94 0.99 0.97 0.99 1.08 1.06 0.99 0.94 1.02 1.08 1.13 1.11 1.14 1.15 1.16 1.18 1.13 1.16 1.17 1.21 1.24 1.23 1.20 1.19 1.15 1.11 1.06 1.03 1.04 1.05 1.04 1.04 1.03 1.02 1.02 1.04 1.06 1.11 1.16 1.24 1.33 1.37 1.42 1.46 1.49 1.47 1.52 1.59 1.59 1.56 1.54 1.55 1.55 1.50 1.44 1.41 1.40 1.41 1.43 1.43 1.45 1.48 1.48 1.46 1.46 1.44 1.45 1.45 1.46 1.44 1.45 1.48 1.49 1.50
0.67 0.70 0.61 0.51 0.64 0.53 0.48 0.76 0.74 0.75 0.82 0.86 0.91 1.02 1.04 1.05 1.05 1.04 0.98 1.03 1.09 1.15 1.15 1.17 1.18 1.17 1.17 1.17 1.12 1.12 1.16 1.18 1.17 1.16 1.14 1.12 1.08 1.05 1.04 1.02 1.00 0.98 0.95 0.93 0.95 0.91 0.86 0.84 0.82 0.84 0.86 0.90 1.01 1.09 1.17 1.20 1.24 1.28 1.35 1.40 1.44 1.45 1.43 1.42 1.47 1.47 1.46 1.43 1.42 1.43 1.44 1.42 1.41 1.41 1.42 1.43 1.43 1.44 1.43 1.41 1.36 1.32 1.30 1.30 1.30 1.34
0.48 0.67 0.56 0.58 0.57 0.52 0.56 0.71 0.78 0.83 0.86 0.89 0.90 0.89 0.91 0.96 1.03 1.05 1.05 1.10 1.16 1.21 1.21 1.17 1.16 1.13 1.15 1.10 1.07 1.05 1.08 1.15 1.13 1.11 1.11 1.11 1.08 1.07 1.06 1.03 1.01 0.99 0.99 0.96 0.93 0.89 0.83 0.80 0.75 0.74 0.74 0.75 0.82 0.85 0.87 0.90 0.93 1.01 1.10 1.14 1.19 1.26 1.29 1.29 1.32 1.34 1.36 1.38 1.38 1.37 1.37 1.34 1.34 1.32 1.31 1.32 1.32 1.30 1.30 1.31 1.29 1.21 1.17 1.16 1.15 1.12
0.58 0.56 0.46 0.56 0.51 0.62 0.69 0.72 0.75 0.77 0.79 0.82 0.87 0.92 0.95 0.94 0.93 0.99 1.04 1.07 1.13 1.15 1.18 1.21 1.19 1.09 1.08 1.05 1.08 1.08 1.08 1.10 1.13 1.10 1.09 1.09 1.07 1.05 1.04 1.03 1.01 0.97 0.93 0.88 0.88 0.85 0.80 0.79 0.76 0.75 0.72 0.71 0.75 0.77 0.79 0.82 0.85 0.89 0.93 0.99 1.05 1.08 1.05 1.13 1.21 1.21 1.19 1.18 1.22 1.23 1.26 1.26 1.26 1.26 1.25 1.25 1.26 1.25 1.23 1.18 1.15 1.16 1.15 1.20 1.20 1.15
0.55 0.50 0.60 0.57 0.49 0.49 0.51 0.59 0.64 0.50 0.52 0.67 0.76 0.84 0.90 0.97 0.96 0.95 1.02 1.05 1.07 1.08 1.12 1.12 1.14 1.17 1.16 1.16 1.13 1.11 1.07 1.08 1.10 1.10 1.06 1.06 1.04 1.03 1.03 1.02 0.99 0.90 0.87 0.88 0.88 0.87 0.85 0.83 0.78 0.73 0.72 0.74 0.79 0.80 0.81 0.81 0.83 0.82 0.81 0.87 0.89 0.86 0.89 0.97 0.94 0.97 1.03 1.05 1.09 1.10 1.08 1.05 1.06 1.06 1.07 1.10 1.10 1.10 1.10 1.17 1.17 1.16 1.14 1.12 1.17 1.17
0.51 0.56 0.52 0.46 0.45 0.46 0.60 0.66 0.71 0.67 0.66 0.71 0.75 0.81 0.86 0.92 0.94 0.90 0.89 0.95 1.03 1.08 1.12 1.10 1.08 1.10 1.12 1.13 1.15 1.09 1.04 1.02 1.04 1.07 1.06 1.03 1.05 1.08 1.04 1.01 0.91 0.86 0.88 0.92 0.92 0.91 0.89 0.87 0.85 0.81 0.79 0.79 0.82 0.83 0.83 0.84 0.85 0.84 0.80 0.75 0.76 0.78 0.79 0.79 0.81 0.85 0.88 0.93 0.94 0.96 0.93 0.91 0.90 0.91 0.90 0.88 0.93 0.95 0.97 0.99 1.05 1.07 1.05 1.02 0.99 0.97
Wind_Speed
20 19 20 23 23 22 20 19 18 16 15 15 12 10 9 9 9 10 11 12 12 12 10 10 11 12 11 10 9 11 14 15 15 16 16 17 16 15 15 15 14 14 14 13 13 15 15 15 13 12 11 11 10 10 10 10 10 10 11 11 11 11 11 12 12 12 12 13 14 14 15 15 16 16 16 16 16 16 16 16 16 15 15 15 15 15
20 20 21 24 24 22 20 19 17 15 15 15 12 11 10 9 8 9 10 12 13 13 12 12 13 14 12 10 10 10 12 13 14 15 16 18 17 15 15 15 15 14 14 13 15 16 16 15 13 12 12 11 11 11 10 10 10 10 11 11 11 11 12 12 12 13 13 14 14 14 15 16 16 16 16 16 16 16 16 15 15 15 15 15 15 16
20 20 21 23 24 23 21 19 17 16 16 15 13 12 11 10 9 7 8 9 11 13 14 13 14 15 14 13 12 11 12 13 12 14 16 17 18 16 16 16 15 15 14 14 16 17 16 15 13 12 12 11 11 11 11 10 10 10 11 11 11 11 11 12 12 13 14 14 15 15 15 16 16 15 15 16 16 16 15 15 15 15 15 15 15 15
19 20 20 22 23 24 22 19 18 17 17 15 14 13 12 13 11 9 9 9 9 11 14 15 14 14 15 15 14 12 13 13 12 13 14 16 17 16 17 18 16 16 16 15 16 17 16 15 14 13 12 12 11 11 11 10 10 11 11 11 11 12 11 11 12 13 14 15 15 15 15 15 15 15 15 15 16 16 15 15 14 14 14 14 14 14
19 19 20 20 22 24 23 21 19 17 17 16 16 14 13 15 13 9 10 10 6 8 13 15 14 14 16 17 16 14 13 14 13 13 14 15 16 16 18 18 16 17 17 16 17 17 16 15 14 13 13 13 12 11 11 11 11 11 11 11 11 12 11 11 12 13 14 15 15 15 15 15 15 15 15 15 15 15 15 15 14 14 13 13 13 13
19 19 19 19 20 23 23 22 20 18 18 17 17 16 15 16 13 10 12 10 8 8 11 15 14 15 18 19 19 16 14 15 14 14 15 15 14 15 17 18 17 17 17 17 17 17 17 16 15 14 14 13 12 12 11 11 11 11 11 11 11 12 12 11 12 13 14 15 15 15 15 15 15 15 15 15 15 15 14 14 14 14 13 13 13 12
18 19 19 19 20 22 22 22 21 19 18 18 18 16 15 15 13 13 14 11 10 9 9 13 14 13 17 20 20 18 17 17 16 15 16 16 15 16 17 18 19 19 17 17 17 17 17 16 15 15 14 13 13 12 12 11 11 11 11 11 11 12 12 12 12 13 14 14 15 15 15 15 15 16 16 15 15 14 14 14 13 13 13 13 13 12
18 19 19 20 20 20 20 21 20 19 17 17 17 16 15 15 14 15 14 11 10 8 7 10 12 11 15 19 20 19 18 18 18 17 17 17 17 17 17 18 19 20 18 17 18 18 18 17 16 15 15 14 13 13 12 12 11 11 11 11 12 12 12 12 12 13 14 14 14 15 15 15 15 15 15 15 14 13 13 13 13 13 13 12 12 12
17 18 19 19 20 20 20 20 19 18 16 16 17 18 16 15 15 14 12 10 10 9 8 10 11 10 12 16 18 19 19 20 20 19 18 19 19 18 18 18 19 20 19 18 18 19 18 18 17 16 15 15 14 13 13 12 12 12 12 12 12 12 12 12 13 13 14 13 14 15 15 15 15 15 14 14 13 13 13 13 12 12 12 11 11 11
16 17 18 18 18 19 20 20 18 17 15 14 16 17 14 13 12 12 12 11 9 9 10 11 11 9 9 13 17 19 20 22 21 20 19 20 20 19 18 18 20 21 20 19 19 19 19 18 17 16 15 15 15 14 13 13 13 13 12 12 12 12 12 13 13 13 13 14 14 15 15 15 15 14 14 14 13 13 13 12 12 12 11 11 10 10
18 18 18 17 18 19 20 19 17 17 16 16 16 16 14 12 11 11 11 10 9 8 10 13 13 9 8 11 16 18 18 19 20 20 19 20 21 21 19 19 20 21 20 20 20 20 20 19 18 17 16 16 15 14 14 14 14 14 13 13 13 12 12 13 13 13 13 14 14 14 14 15 14 14 14 13 13 13 13 12 12 11 11 10 10 10
17 17 17 17 18 19 19 19 15 14 18 18 17 17 14 11 10 9 9 9 9 8 9 12 13 9 7 9 14 16 16 16 19 20 20 21 21 22 21 19 20 21 20 20 21 20 20 20 19 18 17 17 16 15 15 15 15 14 14 14 13 13 13 13 13 13 13 14 14 14 14 14 14 14 14 13 13 13 13 12 11 11 11 10 9 9
15 16 17 17 18 18 18 20 16 15 18 18 17 17 13 10 10 9 9 9 9 9 8 9 12 10 9 9 11 15 15 15 18 20 21 22 22 22 22 21 21 21 21 20 21 21 21 20 19 19 18 17 17 16 15 15 15 15 14 14 14 14 13 13 13 13 14 14 14 14 14 14 14 14 14 13 13 12 12 12 11 11 10 10 9 9
12 14 16 16 17 17 18 20 19 17 18 17 17 18 15 12 11 10 9 9 9 10 7 8 10 9 8 8 10 13 14 15 18 20 22 23 23 23 23 22 22 21 21 21 21 22 21 21 20 19 19 18 18 17 16 16 16 15 15 15 15 14 14 14 14 14 14 14 14 14 14 14 14 14 14 13 13 12 12 12 11 11 10 10 9 9
12 12 15 16 16 17 18 20 21 19 18 16 16 17 17 16 13 10 10 10 10 10 7 7 9 8 7 7 8 10 12 15 16 18 21 23 23 23 23 23 23 22 22 21 22 22 21 21 21 20 20 19 19 18 17 17 16 16 15 15 15 15 15 14 14 14 14 14 15 14 14 14 14 14 14 13 13 13 12 12 11 11 10 10 9 9
12 12 13 14 15 17 18 19 19 18 17 16 14 16 18 17 14 11 10 10 10 9 8 9 9 8 7 7 7 7 10 13 15 16 19 22 24 24 23 24 24 23 22 22 22 22 22 22 21 21 21 20 20 19 18 17 17 17 16 16 16 15 15 15 15 14 14 14 15 14 14 14 14 14 14 14 13 13 12 12 11 11 10 10 9 9
10 10 11 12 13 15 17 18 19 19 18 15 13 15 17 15 14 12 10 9 9 8 9 10 9 8 7 7 6 6 8 11 13 15 18 21 24 24 24 24 24 24 23 23 22 22 22 22 21 21 21 21 21 20 19 18 17 17 17 16 16 16 16 16 15 15 14 15 15 14 14 14 14 14 14 14 13 13 13 12 11 11 10 10 10 9
10 9 10 12 13 14 14 16 19 19 18 16 13 14 14 13 13 12 10 9 8 8 9 10 9 8 7 7 7 6 7 10 12 15 17 20 23 24 24 24 24 23 23 23 23 23 23 23 22 22 22 22 21 21 20 19 18 17 17 17 17 17 17 16 16 15 14 15 14 14 14 14 14 14 14 14 14 13 13 13 12 11 11 10 10 10
10 8 9 11 14 14 12 13 17 17 16 17 15 14 13 12 13 13 12 11 9 8 9 9 8 8 8 9 9 8 8 10 12 14 16 18 22 24 25 24 23 23 23 22 23 24 23 23 23 23 23 23 22 22 21 20 19 18 17 18 17 17 17 17 16 16 15 15 14 14 14 14 14 14 14 14 14 13 13 13 12 12 11 11 10 10
10 9 9 9 12 13 12 12 16 18 17 17 16 13 13 13 13 13 13 12 11 10 9 8 8 8 8 8 9 10 10 10 12 12 14 17 21 23 25 25 23 23 24 23 22 23 24 24 24 23 23 23 23 22 21 20 19 18 18 18 18 17 17 17 17 16 16 15 15 15 14 14 14 14 14 14 13 13 13 13 13 12 12 11 10 10
9 10 10 9 10 12 12 12 15 18 18 17 16 14 14 13 12 12 12 12 11 11 10 9 8 9 9 7 8 10 10 10 11 11 12 16 20 22 24 24 23 23 26 24 21 21 22 23 24 24 23 23 24 22 21 21 20 19 19 18 18 18 17 18 17 17 17 16 15 15 15 14 14 14 13 13 13 13 13 13 13 12 12 11 11 10
9 9 10 10 9 11 12 11 13 18 18 16 15 15 14 13 12 11 11 11 11 11 11 10 10 10 9 7 8 9 8 9 11 11 11 14 18 20 22 24 24 23 25 25 22 21 22 21 22 24 24 23 23 23 22 21 21 20 19 19 19 19 18 18 18 18 17 17 16 16 15 15 14 14 14 13 13 13 13 13 12 12 12 12 11 11
9 9 10 10 11 11 11 11 12 16 17 15 14 14 13 13 12 11 11 12 11 10 10 9 9 10 9 7 8 8 7 8 10 11 11 12 16 19 22 24 25 24 24 24 22 21 23 23 21 22 23 24 23 23 23 22 21 21 20 19 19 19 19 18 18 18 18 17 17 16 16 16 15 15 14 14 13 13 13 13 12 12 12 12 11 11
10 9 9 10 10 9 9 10 11 13 15 14 13 13 13 14 14 12 12 12 11 11 10 8 9 10 9 8 7 7 8 7 8 10 12 12 14 18 22 24 25 25 24 23 23 21 22 24 23 22 23 24 23 22 22 22 22 22 21 20 19 19 20 19 18 18 18 18 18 17 17 16 16 16 15 15 14 14 14 13 12 12 12 11 11 11
9 9 9 9 8 7 6 7 9 10 12 12 12 13 14 15 14 12 11 10 11 13 12 9 9 11 9 8 7 7 8 7 7 10 12 12 13 16 19 22 23 24 24 24 23 21 21 23 25 24 23 23 23 22 22 22 22 22 22 21 20 19 20 20 19 19 19 18 18 18 18 17 17 17 16 15 15 15 14 14 13 13 13 12 12 12
10 10 10 9 8 9 8 8 9 10 11 11 11 11 13 14 14 13 12 12 12 13 13 11 11 11 10 9 8 7 7 8 8 9 11 12 13 15 17 19 21 22 23 23 24 23 22 22 24 26 25 23 23 22 22 22 21 21 22 21 21 20 19 20 20 20 19 19 18 18 18 18 17 17 17 16 16 15 15 15 15 14 13 13 13 12
10 11 11 10 10 10 10 10 11 11 10 10 9 9 11 13 13 13 12 14 14 14 14 13 12 11 10 10 10 8 8 8 8 9 11 12 13 15 16 17 19 21 22 22 22 24 25 24 24 26 25 23 22 22 22 22 22 21 21 22 21 20 20 19 20 20 20 19 19 19 19 18 18 18 17 17 17 16 16 16 15 15 14 14 14 13
10 11 11 11 10 11 11 10 8 7 6 7 7 8 10 11 12 13 14 15 15 14 14 15 13 12 12 11 10 9 8 8 8 10 11 12 13 14 15 16 17 19 21 21 20 21 25 26 25 25 25 24 24 23 22 23 23 22 21 22 22 21 20 20 20 20 20 20 20 19 19 19 18 18 18 17 17 17 17 16 16 16 15 15 14 14
11 12 13 11 10 10 8 6 4 4 5 6 6 6 8 9 10 12 14 16 16 15 15 15 14 13 13 12 10 10 9 9 9 10 10 11 12 12 14 15 15 16 19 21 21 20 21 25 26 25 24 24 24 24 24 23 23 22 21 22 22 22 21 21 20 21 21 21 20 20 19 19 18 18 18 18 18 18 17 17 17 17 16 15 15 15
10 12 13 11 10 9 7 4 3 4 4 5 4 4 6 8 9 11 12 13 14 13 13 13 13 12 12 11 10 9 9 9 9 9 9 10 11 12 12 13 14 14 16 18 20 20 20 21 24 24 24 23 24 24 24 23 23 22 22 22 22 22 22 21 21 21 21 21 21 20 19 19 19 18 18 18 19 18 18 18 17 17 17 16 16 16
8 11 13 12 10 10 9 6 4 5 6 4 4 4 5 7 8 9 10 11 12 11 11 12 12 12 12 11 10 9 8 8 8 9 9 10 11 11 11 12 12 13 14 15 17 19 19 20 22 23 23 23 24 25 25 24 23 23 23 23 22 22 22 22 21 21 21 21 21 21 20 20 20 19 19 19 19 18 18 18 18 17 17 17 17 16
8 10 12 12 10 11 10 8 7 8 8 5 3 5 5 6 8 9 9 11 11 12 13 13 13 13 13 12 11 10 9 8 8 8 9 10 11 11 11 11 12 12 13 13 15 16 17 19 21 22 23 23 24 25 26 25 23 23 23 23 23 23 22 22 21 20 20 20 21 21 21 20 20 20 20 19 19 19 19 18 18 18 18 18 18 17
8 9 10 11 11 11 11 9 9 10 8 5 6 7 6 6 7 8 8 8 9 11 13 13 14 15 14 13 12 12 10 9 9 9 9 9 10 11 11 11 12 12 13 13 13 15 15 16 18 20 22 22 23 25 26 25 23 23 23 23 23 23 23 22 21 20 20 21 22 22 21 20 20 20 20 20 20 20 19 19 19 18 18 18 18 18
7 9 10 11 11 12 12 11 9 9 9 9 10 9 7 6 6 7 7 7 7 9 11 12 12 13 13 13 12 12 11 11 11 10 11 11 10 10 10 11 11 12 13 13 13 14 15 15 16 17 19 20 21 24 25 24 23 22 23 23 23 23 23 22 22 22 20 20 22 23 23 21 20 20 21 21 20 20 20 20 20 19 19 19 18 18
8 9 9 10 11 12 12 11 10 11 12 12 11 10 8 8 7 8 9 8 7 8 10 10 10 11 11 11 11 11 11 12 12 11 11 11 12 11 10 10 11 11 12 13 13 14 14 14 15 16 17 17 18 20 23 23 22 21 22 23 23 23 23 22 22 22 22 21 22 24 24 23 22 21 21 21 21 21 20 20 20 20 20 20 20 19
8 10 10 10 10 11 11 11 12 15 15 12 10 10 9 8 7 8 10 9 9 10 12 12 11 11 10 11 12 12 11 11 12 11 11 12 12 12 11 11 11 12 12 12 12 13 13 14 14 15 16 17 17 18 20 20 20 20 20 20 21 22 22 21 21 23 24 24 24 24 24 24 23 23 23 22 22 21 21 21 21 21 21 21 21 21
8 9 10 9 10 10 11 12 13 14 14 13 12 11 10 10 9 10 12 12 11 11 12 13 13 12 12 12 13 13 12 11 11 12 13 13 13 13 12 12 12 12 12 12 11 12 12 13 14 14 14 15 15 16 17 18 18 18 17 17 19 19 19 19 20 20 22 24 24 25 24 24 24 24 23 23 23 23 22 22 21 21 22 22 22 21
9 10 10 10 10 10 10 12 13 13 15 16 15 14 13 12 11 11 12 12 12 12 13 13 13 13 14 15 15 14 12 11 13 14 14 14 14 14 13 13 13 13 12 12 12 11 12 12 12 12 12 13 14 14 15 16 16 17 17 17 18 18 18 18 18 19 19 20 22 23 24 25 25 25 24 23 23 23 22 22 22 22 22 22 22 22
8 9 9 9 10 10 10 13 14 15 16 17 17 16 15 13 12 11 12 13 13 13 14 14 13 13 14 14 15 14 13 13 14 15 15 14 13 13 13 13 13 12 12 12 12 12 11 11 11 11 12 13 14 14 15 15 15 15 16 17 18 18 17 17 18 18 18 18 19 20 21 22 24 24 24 24 24 24 23 23 22 22 22 22 22 22
8 8 8 8 10 10 10 12 14 15 16 17 16 17 17 15 13 12 13 15 14 13 14 15 14 13 14 14 13 12 12 13 14 15 15 14 13 12 13 14 13 13 12 11 11 11 11 11 11 11 11 12 13 14 15 15 15 15 15 16 17 17 17 17 18 18 18 18 18 18 18 18 19 20 20 21 22 24 24 23 22 22 22 23 23 23
9 9 8 9 9 9 10 11 13 14 15 15 16 16 16 15 14 14 15 16 14 13 14 16 16 15 16 15 14 14 13 13 13 14 14 14 14 13 13 14 14 14 13 12 12 11 11 11 11 11 11 12 13 14 15 16 16 16 16 17 16 16 17 18 19 19 19 19 19 19 18 18 18 18 17 17 17 18 20 21 21 21 22 22 23 23
10 10 8 8 8 8 9 10 11 12 14 14 14 14 14 14 16 17 17 15 14 14 14 15 15 15 15 15 15 15 15 14 14 14 14 13 14 14 14 14 14 14 14 13 13 12 12 12 12 12 12 12 13 14 15 15 15 15 16 17 16 16 17 18 17 17 17 17 17 17 17 17 17 17 17 16 16 15 16 16 17 18 19 19 20 20
11 10 9 8 9 8 8 9 10 12 12 12 12 12 12 13 16 17 15 14 14 15 15 14 14 14 15 15 15 13 13 13 14 15 15 14 14 14 14 15 14 14 14 14 14 14 14 13 13 12 12 13 13 14 14 15 15 15 15 15 15 15 16 15 15 14 14 15 15 15 14 14 14 14 15 15 15 15 15 15 16 16 16 17 17 17
9 10 10 9 9 10 10 10 11 12 12 10 9 11 12 12 13 14 14 13 13 13 14 15 14 13 14 15 15 13 12 11 12 14 14 13 14 13 14 14 14 14 14 14 14 14 14 13 13 12 12 13 13 13 14 14 14 14 14 14 15 14 14 14 14 14 14 14 14 14 13 13 13 13 13 14 14 15 15 15 15 15 15 15 15 15
9 10 10 9 9 9 10 11 11 11 11 9 9 11 11 11 11 11 12 12 12 12 13 14 14 13 13 14 14 14 13 12 12 13 13 13 13 12 13 13 14 13 13 13 13 13 13 12 12 12 12 12 13 13 14 14 14 14 14 15 15 14 14 14 13 13 13 14 13 13 13 12 12 12 12 12 12 12 12 13 13 13 13 14 14 14
7 8 8 8 8 8 8 8 9 9 9 8 8 10 10 10 10 10 10 10 11 12 12 12 13 13 13 13 13 13 13 13 13 12 11 11 11 12 13 13 13 13 13 12 12 12 12 12 11 11 11 11 12 13 14 14 15 15 15 15 15 15 15 14 13 13 13 13 13 13 13 12 12 12 12 11 11 11 11 11 11 12 13 13 14 14
6 6 6 7 8 7 7 8 8 7 8 8 8 9 9 10 10 10 9 10 11 11 11 11 12 12 12 12 13 13 13 13 13 11 10 10 11 12 12 12 13 13 12 12 12 12 12 12 11 11 11 11 12 12 13 13 14 14 15 15 16 16 16 15 14 14 14 14 14 14 14 14 14 13 13 13 13 12 12 12 12 12 13 13 13 13
5 5 5 6 6 6 7 8 7 7 8 8 8 9 9 9 10 9 9 9 10 10 10 11 12 12 12 12 12 13 13 13 13 12 12 11 11 11 12 12 12 12 12 12 12 12 12 12 12 12 12 12 12 13 13 13 14 14 15 15 16 16 16 16 15 15 15 15 15 15 15 15 15 16 15 15 15 14 14 14 14 13 13 13 13 13
3 4 5 6 5 5 6 7 7 6 6 7 8 9 9 10 10 9 9 10 9 9 10 10 11 12 11 11 12 12 12 13 12 12 12 11 11 12 11 12 12 12 12 12 11 12 12 12 12 12 12 12 12 13 13 13 13 14 15 15 16 16 16 16 17 16 16 15 15 16 16 16 16 16 16 16 16 16 16 15 15 15 15 15 15 15
3 3 4 4 4 5 6 8 8 7 7 8 8 9 9 9 10 10 10 10 9 9 10 10 10 10 10 10 11 11 11 12 11 11 11 11 11 12 12 12 12 13 13 13 12 12 12 12 12 12 12 12 12 12 12 13 13 14 15 15 16 16 16 16 17 17 17 16 16 16 16 16 16 16 16 16 17 17 17 16 16 17 17 17 17 17
4 5 5 4 3 4 6 8 8 7 7 8 8 8 8 8 9 9 9 10 10 10 10 10 10 10 10 11 11 11 11 11 11 11 11 11 11 11 12 12 12 13 13 13 13 13 12 12 12 13 13 13 12 12 12 12 13 13 14 15 15 16 16 16 16 17 17 18 17 17 17 17 17 17 17 17 17 17 17 17 17 17 17 18 18 18
Wind_Direction
205 205 209 208 206 205 204 201 201 205 204 198 195 195 197 196 196 200 203 203 202 202 205 199 194 196 191 186 192 187 183 184 182 180 181 182 184 182 180 183 183 180 179 175 170 168 167 168 165 154 150 146 144 145 144 142 141 140 141 141 139 138 137 138 138 136 134 135 135 135 136 136 137 138 138 137 137 138 138 137 136 134 131 129 128 130
204 205 209 207 204 203 204 204 203 203 199 193 194 198 201 200 192 196 204 205 207 209 208 202 198 201 199 197 205 196 185 186 185 184 185 184 186 188 185 184 184 182 181 175 169 168 168 170 168 159 153 150 148 149 148 145 145 145 144 144 142 140 140 140 140 140 138 138 138 138 138 138 138 139 139 139 139 139 139 138 137 135 134 132 131 132
207 208 209 206 204 202 204 206 204 201 198 197 199 199 202 201 190 191 199 201 209 213 210 204 201 204 204 203 207 202 190 190 188 186 189 188 188 189 187 186 187 184 181 176 171 170 171 172 171 164 159 156 154 153 152 150 148 148 147 146 146 144 143 142 142 142 141 141 141 140 141 140 139 140 140 140 141 140 140 140 138 137 138 137 135 134
206 209 208 205 202 202 205 207 204 203 203 203 201 201 203 198 195 202 199 193 209 214 207 204 205 208 208 205 205 203 197 196 192 189 193 192 191 192 189 188 189 186 182 178 175 174 174 174 173 168 164 161 157 156 155 154 151 150 150 150 150 148 147 145 144 144 144 143 142 141 142 141 140 140 141 141 142 141 141 141 141 140 140 140 138 137
207 206 203 201 199 201 205 208 206 204 206 207 205 205 204 201 203 206 192 186 198 210 204 200 205 210 209 206 206 203 200 201 199 194 195 195 194 193 191 190 190 188 184 180 178 178 176 176 175 171 168 165 161 159 159 159 156 153 152 152 152 152 150 148 146 146 147 146 144 143 143 143 141 141 143 144 144 144 143 143 143 143 143 143 141 141
207 204 199 198 199 201 204 208 208 205 207 211 211 208 204 201 201 189 181 185 194 206 207 200 202 211 210 208 208 205 202 203 204 202 201 200 196 193 192 193 192 189 186 184 182 180 178 177 177 174 171 170 167 164 163 164 161 157 154 153 154 154 153 151 148 147 148 148 147 146 146 146 145 144 147 148 147 147 147 145 144 145 145 145 145 145
202 200 196 198 199 200 204 209 207 205 207 212 213 208 202 197 190 183 185 193 200 205 208 202 202 208 209 209 209 206 205 206 206 206 208 206 200 195 195 196 193 189 188 187 184 183 181 179 179 177 174 174 172 169 167 167 165 162 159 156 157 157 157 155 150 148 149 150 152 151 150 150 149 148 149 150 149 149 149 148 147 147 147 147 146 147
198 197 197 198 199 198 202 205 203 201 205 212 207 195 193 193 189 189 191 198 204 196 191 201 202 203 208 210 207 205 207 208 209 209 210 210 205 200 198 198 194 191 191 188 185 184 184 182 181 179 178 178 176 174 171 170 169 166 163 162 160 160 160 159 155 153 153 155 157 157 155 154 153 152 152 152 152 151 152 151 150 149 149 148 148 148
193 194 196 198 199 199 198 199 197 196 204 211 199 187 189 191 189 190 190 196 200 189 186 199 200 202 213 210 204 205 209 211 211 210 209 209 208 203 201 199 196 194 193 190 187 187 187 185 183 181 180 180 179 178 176 174 173 170 168 167 164 163 164 163 160 159 159 158 160 161 160 158 157 156 155 154 153 153 154 153 152 152 152 152 151 151
196 195 195 196 199 199 197 197 196 195 202 201 189 183 184 185 186 190 193 194 194 193 197 198 196 202 214 210 202 204 211 214 212 210 208 208 208 205 203 200 197 195 194 192 190 189 189 188 186 183 182 181 181 182 179 177 176 174 172 170 168 167 168 167 165 164 164 162 162 164 164 161 159 159 158 156 156 157 157 157 156 156 156 156 156 156
203 202 200 198 197 195 194 198 200 198 192 183 180 179 177 184 187 191 199 195 192 206 206 198 196 200 209 209 204 205 211 212 210 208 207 207 207 206 205 201 197 195 194 193 192 191 191 191 189 186 184 183 183 183 182 179 178 177 174 173 172 171 170 170 169 168 168 167 166 167 168 166 164 163 162 160 160 162 162 161 161 162 162 162 161 161
202 203 202 198 194 192 193 197 198 192 182 177 181 181 178 189 192 192 206 202 200 214 213 203 200 202 212 211 207 209 212 209 208 209 206 204 205 205 205 202 198 196 194 194 193 192 192 192 191 188 186 185 184 185 184 181 180 179 177 176 175 174 173 172 172 172 172 171 170 170 171 171 170 169 168 166 166 166 166 166 166 167 167 166 166 167
202 200 199 195 194 194 194 197 193 184 181 180 185 183 178 189 196 199 210 210 210 216 218 207 200 208 226 220 209 211 213 211 210 210 207 203 203 205 205 202 199 196 195 194 194 194 194 193 192 190 187 186 186 187 186 184 182 181 180 179 179 178 176 175 175 175 174 174 174 174 175 175 175 175 175 174 172 172 171 170 170 172 172 172 171 172
198 198 197 195 199 197 190 192 191 187 186 187 192 191 186 188 195 202 207 209 212 215 217 204 198 215 237 228 213 210 211 210 208 208 207 204 201 203 205 203 199 197 196 196 195 195 196 194 193 192 190 188 188 189 189 186 184 184 183 183 182 181 180 178 178 178 177 178 178 178 179 179 178 180 181 180 179 178 177 176 176 177 178 178 177 177
187 193 197 196 201 199 190 191 193 190 188 192 198 198 194 193 195 200 202 201 201 204 206 199 202 216 222 218 219 217 213 208 204 205 204 203 201 201 205 205 202 198 198 198 196 195 196 194 194 193 192 191 190 190 190 188 187 186 186 185 185 183 182 182 181 180 180 181 182 183 183 183 183 183 184 185 185 184 183 182 182 182 183 185 185 184
186 197 203 202 202 197 193 195 193 190 194 200 198 195 200 203 199 196 198 194 189 195 205 206 213 220 213 218 231 225 213 203 201 202 200 201 201 201 205 208 205 201 199 198 196 195 196 195 194 194 193 193 192 192 192 191 190 189 188 187 187 186 185 184 183 183 183 184 185 186 185 186 187 187 187 188 188 189 189 188 188 189 189 190 191 191
187 199 205 201 201 199 195 196 194 192 195 201 197 197 206 211 202 198 206 205 194 200 214 213 220 230 225 231 242 229 211 203 201 201 199 200 201 201 205 208 206 203 200 199 198 197 197 196 195 194 194 194 194 194 194 194 192 191 190 189 188 188 188 187 186 186 186 185 187 188 187 188 190 191 191 191 191 192 194 195 194 195 197 197 197 198
188 198 206 197 199 202 195 192 196 195 193 194 199 203 207 212 207 203 209 215 211 213 220 217 221 230 227 231 240 230 214 211 207 202 200 201 202 202 204 206 206 204 201 200 200 198 198 198 197 195 195 195 195 196 196 194 193 193 193 192 190 190 191 190 189 188 188 188 188 190 189 190 192 193 194 195 195 196 198 199 199 200 202 203 203 203
186 195 209 197 195 198 192 188 196 201 199 198 204 206 203 207 211 209 209 212 212 216 223 223 224 227 226 228 231 224 215 212 210 206 204 204 204 204 204 203 204 202 200 201 202 200 199 199 199 197 196 196 196 197 196 195 194 195 195 195 193 193 193 193 192 191 190 191 191 191 192 193 194 195 196 197 198 199 200 202 203 204 205 206 206 207
191 193 205 200 193 195 195 193 198 204 206 205 209 213 209 207 209 210 210 208 208 214 221 223 225 228 229 228 223 218 215 209 207 210 211 208 206 205 204 203 203 201 199 201 203 203 201 200 199 198 197 197 197 197 196 195 195 196 197 197 196 195 195 195 196 195 194 194 194 194 195 195 196 197 197 198 199 201 202 203 204 206 207 208 209 210
195 193 201 204 195 191 195 201 200 200 201 203 208 213 213 212 211 211 213 212 209 212 217 217 225 234 233 230 225 221 217 211 209 213 215 211 206 204 203 202 201 199 198 201 204 203 202 202 200 198 198 198 198 197 197 197 197 198 199 199 198 197 197 197 198 198 198 198 197 197 197 198 198 198 199 200 201 202 203 205 206 208 209 210 211 213
190 190 195 200 192 187 198 206 200 196 196 198 204 208 208 206 203 203 213 219 213 210 214 212 221 237 236 231 232 226 219 216 211 210 214 211 205 202 202 200 200 199 199 202 205 203 202 204 203 200 198 197 198 198 198 198 198 199 201 201 200 200 200 200 200 200 201 201 201 200 200 201 200 201 201 202 203 204 205 206 208 209 210 211 212 213
188 186 189 196 193 191 206 214 201 196 197 198 204 206 203 202 200 198 210 218 211 208 215 213 220 235 236 229 230 224 216 213 207 204 207 207 202 199 199 200 202 202 202 203 206 205 202 203 207 207 200 196 197 199 199 199 200 201 203 203 202 202 202 202 202 203 203 204 204 204 203 203 203 204 205 205 206 207 208 209 209 210 210 211 211 211
188 186 186 193 197 199 210 211 198 194 195 198 207 208 202 205 207 206 213 213 205 206 212 214 223 233 232 229 230 222 212 207 201 198 197 198 196 194 196 200 204 205 204 203 206 207 203 203 208 211 205 198 197 200 201 201 202 203 204 205 205 205 204 205 205 205 205 206 207 207 207 207 207 207 208 208 209 210 211 212 212 212 213 214 214 214
190 187 180 179 189 197 200 200 197 197 195 198 209 213 212 213 214 216 218 212 210 214 209 205 222 232 230 229 231 221 208 203 200 196 192 191 192 192 195 199 202 204 206 206 207 208 207 206 207 208 206 202 201 202 203 203 204 204 205 206 207 207 206 206 207 207 208 208 209 210 210 210 210 211 211 212 212 214 215 215 216 217 218 218 218 219
190 186 178 172 179 187 188 194 200 204 206 209 215 220 220 219 219 221 218 211 215 217 209 208 221 229 229 227 227 221 208 202 200 196 192 190 191 193 196 198 200 203 205 207 210 212 212 210 209 209 209 208 206 205 203 203 205 205 206 207 208 208 208 208 209 210 210 210 211 212 212 212 213 213 214 215 216 217 217 218 219 220 221 222 222 222
192 190 186 179 182 187 190 196 202 206 215 222 225 227 223 217 216 217 215 216 217 211 213 220 218 215 222 223 219 217 208 202 200 195 194 194 194 196 197 199 201 204 205 208 212 214 213 212 211 211 212 211 210 209 206 203 204 205 206 207 208 209 209 209 211 212 211 211 212 214 214 215 216 216 217 218 219 219 220 221 222 223 223 224 224 224
194 197 197 189 190 194 191 194 203 207 214 220 223 227 225 220 219 217 217 219 212 203 214 221 210 206 216 216 212 212 207 201 198 196 195 194 194 197 199 199 201 204 206 208 211 212 212 211 211 211 212 211 210 211 210 206 205 206 207 207 208 209 209 211 212 212 213 214 215 216 217 217 219 219 219 219 220 221 222 223 223 224 224 226 226 226
194 201 205 200 201 203 196 196 201 185 192 207 210 215 220 220 218 217 221 221 212 209 218 217 208 210 213 207 206 209 206 201 197 193 192 190 191 195 196 196 199 203 206 208 210 211 210 209 210 210 211 210 209 212 213 210 207 207 209 210 209 210 211 212 214 214 215 216 217 218 218 219 221 222 221 221 222 223 224 225 225 226 226 228 228 229
194 202 208 205 205 206 202 205 201 174 181 202 202 203 214 218 217 216 220 219 212 215 219 209 203 210 210 202 200 202 201 200 194 187 185 184 186 189 190 191 195 200 204 207 209 211 210 208 208 210 212 212 211 212 213 213 211 210 210 211 211 212 213 214 216 217 217 217 218 219 220 221 222 224 224 224 225 226 226 227 227 227 228 229 231 231
198 204 209 205 203 206 201 201 202 179 167 174 191 209 220 223 223 221 218 215 210 209 207 198 198 209 211 200 193 194 195 193 189 186 185 185 186 185 185 187 189 193 199 203 206 209 210 210 210 210 211 212 213 213 212 213 214 213 212 212 213 214 216 217 218 219 220 219 219 220 220 221 223 225 226 226 226 227 228 229 228 228 229 230 231 233
207 208 211 206 204 208 205 209 216 196 179 173 194 217 229 224 219 217 213 212 211 204 196 193 199 211 211 198 191 196 197 193 190 188 186 189 191 189 189 190 190 190 191 196 201 204 207 211 213 213 212 212 214 212 210 210 212 212 212 214 215 216 217 219 220 221 222 221 220 220 221 222 224 225 227 228 228 228 229 230 229 229 229 230 232 234
214 210 214 209 208 213 213 215 218 206 200 212 218 219 228 223 214 212 210 212 210 201 196 198 204 208 205 197 196 201 202 199 198 195 191 191 192 193 195 195 197 198 197 196 198 201 205 208 210 211 212 214 213 210 208 209 210 212 214 216 217 216 217 219 221 221 222 222 221 221 222 224 226 227 228 229 230 230 231 231 231 231 231 231 232 234
219 211 215 211 210 218 219 215 213 207 206 215 219 217 219 215 206 200 202 207 208 203 202 203 203 204 204 201 201 205 205 203 201 200 199 197 192 191 194 196 200 205 207 207 205 203 205 207 207 208 210 212 212 210 210 212 213 214 216 217 217 217 218 220 221 222 224 223 221 221 224 228 230 231 230 230 231 232 232 232 233 233 233 233 233 234
221 215 218 216 213 218 218 213 213 213 211 213 217 218 217 216 208 199 200 205 213 217 216 209 205 211 213 205 199 199 200 199 200 200 200 200 196 191 191 194 199 203 207 213 213 210 209 210 209 209 210 211 211 209 210 213 216 217 218 219 219 218 219 222 224 225 225 225 223 224 228 231 232 232 232 231 232 233 233 234 234 235 235 236 236 236
221 218 221 219 216 218 218 213 211 212 214 217 217 216 217 218 218 213 211 213 218 224 225 219 215 219 219 208 197 192 191 194 200 204 204 204 202 200 198 198 199 201 204 208 211 212 213 214 212 210 210 211 211 209 209 212 215 216 217 217 217 217 219 223 227 229 228 228 228 229 231 233 233 234 235 234 233 233 234 235 235 236 237 238 238 239
223 223 225 222 218 215 210 206 204 209 218 222 219 218 220 224 226 220 214 216 219 221 224 223 217 215 217 214 205 194 189 195 208 213 210 208 208 208 207 206 204 204 205 205 205 206 208 211 213 211 206 205 207 208 208 210 212 213 213 213 212 214 218 222 226 229 230 231 232 232 234 235 235 236 237 236 234 234 234 235 236 238 239 239 239 240
229 224 221 220 222 215 205 202 205 213 222 223 224 227 231 236 236 224 215 222 226 221 220 223 222 219 217 216 213 208 203 208 220 221 215 212 213 212 212 213 211 208 207 207 207 207 208 211 215 213 205 201 204 208 209 209 211 212 214 215 215 217 220 223 225 228 230 231 233 234 236 238 239 239 238 237 235 234 235 236 238 240 241 241 240 240
235 225 219 220 225 220 210 209 212 216 221 223 228 233 237 243 242 227 221 229 231 225 220 221 226 228 224 223 226 226 223 224 227 224 217 214 215 215 214 213 212 209 208 209 209 210 211 213 215 214 211 210 211 213 213 212 212 214 217 220 223 223 224 225 226 228 231 232 233 234 237 239 240 240 239 238 237 235 235 237 239 241 242 242 242 242
238 230 224 225 228 224 217 215 218 219 221 226 232 236 240 243 237 225 225 231 230 225 222 220 225 232 231 232 237 234 231 232 229 223 218 214 213 215 214 212 210 208 207 208 209 210 212 213 214 214 216 216 215 216 219 218 217 219 222 225 226 227 228 230 231 232 235 237 237 237 237 237 238 239 239 239 239 237 237 237 238 240 242 243 243 244
230 225 220 220 224 225 217 216 220 221 222 228 235 239 240 238 231 226 230 231 227 222 222 221 223 229 232 234 236 236 237 237 227 217 216 215 213 215 214 210 207 207 207 208 210 211 213 215 216 215 217 219 218 220 223 223 222 224 227 230 230 229 232 235 236 238 240 241 240 239 238 239 240 241 240 239 238 236 235 236 238 240 243 245 245 245
223 222 223 221 222 224 216 212 217 222 224 232 239 240 236 229 227 228 230 230 227 225 225 225 223 224 226 227 229 229 230 229 223 216 215 214 213 213 213 210 208 208 209 211 214 215 216 217 218 218 220 221 221 222 224 224 225 227 229 233 234 234 235 237 237 238 237 235 235 237 239 241 242 242 241 239 236 234 234 236 239 241 243 245 246 244
218 217 220 221 220 219 214 212 215 219 227 237 238 234 231 226 226 228 228 229 230 228 229 230 227 223 220 218 218 218 216 217 218 215 213 212 210 209 210 211 211 211 212 213 215 217 219 220 222 223 224 224 223 224 224 224 225 227 229 232 233 233 233 233 231 229 225 224 228 234 236 237 239 240 238 236 234 236 240 242 243 243 243 245 245 242
220 216 215 220 220 214 212 214 217 219 226 234 228 223 227 228 226 224 224 227 230 230 231 231 228 226 221 214 211 212 211 209 210 208 204 204 207 208 209 210 212 214 215 214 215 217 219 221 222 223 225 226 226 225 224 223 223 224 226 228 229 228 227 227 226 224 223 225 228 231 233 234 236 236 235 234 235 238 241 242 242 242 243 243 240 236
221 212 208 215 219 214 211 213 215 217 222 226 221 221 224 225 224 222 219 221 227 230 231 228 224 223 221 212 206 207 206 205 206 205 200 200 205 208 209 209 210 211 211 211 212 215 217 218 218 218 221 224 225 224 224 224 222 222 223 225 226 226 226 226 226 225 224 225 226 228 230 232 232 230 230 231 234 236 236 237 236 237 238 238 235 234
209 200 202 212 217 215 215 217 217 218 219 218 216 217 217 218 221 222 217 218 224 227 225 221 216 215 215 210 205 202 199 197 201 204 202 201 204 207 206 207 207 206 206 208 211 213 213 212 212 213 215 219 222 223 225 226 225 224 223 224 225 226 226 225 226 225 224 222 223 225 227 227 228 227 228 229 232 233 234 235 235 234 235 236 237 238
207 200 203 212 214 216 222 225 220 216 215 212 209 210 212 215 218 219 215 216 219 219 217 213 208 206 207 205 201 198 198 199 201 205 205 203 204 205 205 207 209 210 211 214 215 216 215 214 215 216 216 219 223 224 224 225 226 224 223 223 225 227 226 225 225 226 226 225 225 227 229 229 230 231 232 233 233 232 233 235 236 235 235 236 238 240
201 195 197 206 211 213 216 216 209 205 211 213 210 211 213 214 216 215 213 214 214 213 213 209 204 204 205 203 199 198 201 205 207 207 209 210 211 211 209 209 212 215 217 219 220 220 220 220 222 223 223 224 226 226 226 225 225 225 224 224 225 227 228 227 226 227 228 229 229 231 232 233 233 234 236 236 235 235 235 236 237 237 238 239 242 244
179 182 193 199 205 213 215 211 206 206 215 217 214 214 214 212 212 211 211 211 210 209 210 209 208 208 206 204 202 200 201 206 210 210 212 216 218 217 215 215 216 218 220 221 222 222 222 223 224 225 227 228 228 228 227 227 227 227 227 226 227 228 229 228 228 229 230 230 230 231 232 233 234 235 236 237 237 237 238 239 240 241 242 244 247 249
166 173 183 183 195 218 222 215 208 206 212 214 211 212 213 210 208 207 208 209 210 210 209 207 207 208 205 200 199 199 202 208 213 214 216 221 222 220 219 219 219 220 221 221 221 222 224 227 228 228 228 228 227 227 228 229 228 228 228 227 228 228 229 229 230 231 231 230 231 232 233 233 233 235 237 238 238 239 240 242 245 246 247 249 252 254
192 189 191 187 198 212 209 201 194 193 202 207 206 207 211 209 205 205 208 208 210 213 213 210 208 208 207 204 202 205 209 213 217 219 221 224 223 220 217 216 217 217 219 220 222 225 228 230 231 231 229 228 228 229 231 231 229 228 228 228 228 229 230 230 231 232 232 233 234 236 237 236 236 238 240 242 242 243 244 245 247 249 251 253 254 256